This is the latest recevied weather packets stored in our database for station/object K5OBH. If no packets are shown the sender has not sent any weather packets the latest 10 day(s).
| Time | Temp. | Humidity | Pressure | Rain* | Wind** | Luminosity | Snow |
|---|---|---|---|---|---|---|---|
| 1777398420 | 15° C | 79% | 1013.1 hPa | 0 mm | - | 160 W/m² | - |
| 1777398116 | 15.56° C | 78% | 1012.9 hPa | 0 mm | - | 189 W/m² | - |
| 1777397814 | 15° C | 79% | 1013 hPa | 0 mm | - | 239 W/m² | - |
| 1777397509 | 15° C | 79% | 1013 hPa | 0 mm | - | 216 W/m² | - |
| 1777397205 | 15.56° C | 78% | 1013 hPa | 0 mm | - | 202 W/m² | - |
| 1777396903 | 15.56° C | 79% | 1013 hPa | 0 mm | - | 196 W/m² | - |
| 1777396598 | 15° C | 79% | 1013 hPa | 0 mm | - | 165 W/m² | - |
| 1777396296 | 15° C | 79% | 1013.3 hPa | 0 mm | - | 166 W/m² | - |
| 1777395992 | 15.56° C | 80% | 1013.2 hPa | 0 mm | - | 144 W/m² | - |
| 1777395692 | 15.56° C | 80% | 1013.1 hPa | 0 mm | - | 145 W/m² | - |
| 1777395389 | 15.56° C | 80% | 1013.7 hPa | 0 mm | - | 96 W/m² | - |
| 1777395087 | 15.56° C | 80% | 1013.4 hPa | 0 mm | - | 100 W/m² | - |
| 1777394783 | 15.56° C | 80% | 1013.3 hPa | 0 mm | - | 107 W/m² | - |
| 1777394480 | 15.56° C | 80% | 1013.3 hPa | 0 mm | - | 99 W/m² | - |
| 1777394176 | 16.11° C | 80% | 1012.9 hPa | 0 mm | - | 121 W/m² | - |
| 1777393872 | 16.11° C | 82% | 1013 hPa | 0 mm | - | 126 W/m² | - |
| 1777393571 | 16.11° C | 81% | 1012.8 hPa | 0 mm | - | 95 W/m² | - |
| 1777393266 | 16.11° C | 81% | 1012.9 hPa | 0 mm | - | 86 W/m² | - |
| 1777392964 | 16.11° C | 82% | 1012.6 hPa | 0 mm | - | 124 W/m² | - |
| 1777392659 | 16.11° C | 81% | 1012.6 hPa | 0 mm | - | 112 W/m² | - |
| 1777392355 | 16.11° C | 82% | 1012.5 hPa | 0 mm | - | 138 W/m² | - |
| 1777392055 | 16.67° C | 81% | 1012.6 hPa | 0 mm | - | 101 W/m² | - |
| 1777391750 | 16.11° C | 81% | 1012.5 hPa | 0 mm | - | 206 W/m² | - |
| 1777391448 | 16.11° C | 82% | 1012.6 hPa | 0 mm | - | 174 W/m² | - |
| 1777391144 | 16.11° C | 81% | 1012.7 hPa | 0 mm | - | 197 W/m² | - |
* Rain latest hour (hover to see other rain measurements)
** Current wind speed in m/s (hover to see current wind gust speed)